Weather History for KNKT - May, 2013

Change the Weather History Date:

Saturday, May 11, 2013

  Actual Average (KEWN) Record (KEWN)
Temperature  
Mean Temperature 74 °F 68 °F  
Max Temperature 80 °F 79 °F 91 °F (1973)
Min Temperature 69 °F 57 °F 37 °F (1966)
Degree Days  
Heating Degree Days 0 1  
Month to date heating degree days 20  
Since 1 July heating degree days 2687  
Cooling Degree Days 10 4  
Month to date cooling degree days 41  
Year to date cooling degree days 111  
Growing Degree Days 24 (Base 50)    
Moisture  
Dew Point 66 °F    
Average Humidity 74    
Maximum Humidity 88    
Minimum Humidity 53    
Precipitation  
Precipitation 0.04 in 0.13 in 0.90 in (1961)
Month to date precipitation 1.36  
Year to date precipitation 16.60  
Snow  
Snow - - - ()
Month to date snowfall  
Since 1 July snowfall  
Snow Depth -    
Sea Level Pressure  
Sea Level Pressure 29.93 in    
Wind  
Wind Speed 10 mph ()    
Max Wind Speed 20 mph    
Max Gust Speed 34 mph    
Visibility 9.8 miles    
Events Rain    
T = Trace of Precipitation, MM = Missing Value Source: Averaged Metar Reports

Daily Weather History Graph

Daily Weather History Graph

Search for Another Location

Airport or City:

Trip Planner

Search our weather history database for the weather conditions in past years. The results will help you decide how hot, cold, wet, or windy it might be!

Date:

Astronomy

May. 11, 2013 Rise Set
Actual Time 6:07 AM EDT 8:01 PM EDT
Civil Twilight 5:39 AM EDT 8:28 PM EDT
Nautical Twilight 5:05 AM EDT 9:02 PM EDT
Astronomical Twilight 4:30 AM EDT 9:38 PM EDT
Moon 7:14 AM EDT (5/11) 9:38 PM EDT (5/11)
Length of Visible Light 14h 49m
Length of Day
13h 53m
Waxing Crescent, 3% of the Moon is Illuminated
May 11
Waxing Crescent
May 18
First Quarter
May 25
Full
May 31
Last Quarter
Jun 8
New

Hourly Weather History & Observations

Time (EDT) Temp. Heat Index Dew Point Humidity Pressure Visibility Wind Dir Wind Speed Gust Speed Precip Events Conditions
12:54 AM 71.1 °F - 64.9 °F 81% 30.04 in 10.0 mi South 6.9 mph - N/A   Clear
1:54 AM 71.1 °F - 64.9 °F 81% 30.02 in 10.0 mi SSW 6.9 mph - N/A   Clear
2:54 AM 70.0 °F - 66.0 °F 87% 30.00 in 10.0 mi SSW 6.9 mph - N/A   Clear
3:54 AM 71.1 °F - 66.0 °F 84% 30.00 in 10.0 mi SSW 8.1 mph - N/A   Clear
4:54 AM 71.1 °F - 64.9 °F 81% 29.99 in 10.0 mi SSW 5.8 mph - N/A   Clear
5:54 AM 71.1 °F - 64.0 °F 78% 30.00 in 10.0 mi SSW 5.8 mph - N/A   Clear
6:54 AM 71.1 °F - 64.9 °F 81% 30.01 in 10.0 mi SSW 5.8 mph - N/A   Mostly Cloudy
7:54 AM 73.0 °F - 66.0 °F 79% 30.00 in 10.0 mi SSW 9.2 mph - N/A   Clear
8:54 AM 73.9 °F - 66.9 °F 79% 29.99 in 10.0 mi SW 10.4 mph - N/A   Mostly Cloudy
9:54 AM 75.9 °F - 66.0 °F 71% 29.97 in 10.0 mi SSW 11.5 mph 20.7 mph N/A   Partly Cloudy
10:54 AM 78.1 °F - 66.9 °F 68% 29.96 in 10.0 mi SW 18.4 mph 23.0 mph N/A   Mostly Cloudy
11:03 AM 78.8 °F - 68.0 °F 69% 29.97 in 10.0 mi SW 15.0 mph 24.2 mph N/A   Mostly Cloudy
11:30 AM 78.8 °F - 68.0 °F 69% 29.96 in 10.0 mi SW 13.8 mph 25.3 mph N/A   Overcast
11:54 AM 78.1 °F - 68.0 °F 71% 29.94 in 10.0 mi SSW 12.7 mph 23.0 mph N/A   Mostly Cloudy
12:20 PM 73.4 °F - 69.8 °F 88% 29.95 in 2.5 mi SW 17.3 mph 23.0 mph 0.04 in Rain Heavy Rain
12:30 PM 75.2 °F - 69.8 °F 83% 29.94 in 10.0 mi SW 12.7 mph 21.9 mph 0.04 in   Overcast
12:54 PM 78.1 °F - 69.1 °F 74% 29.94 in 10.0 mi SSW 12.7 mph 31.1 mph 0.04 in   Mostly Cloudy
1:13 PM 78.8 °F - 68.0 °F 69% 29.94 in 10.0 mi SSW 18.4 mph 34.5 mph N/A   Scattered Clouds
1:54 PM 80.1 °F 82.9 °F 69.1 °F 69% 29.90 in 10.0 mi SSW 17.3 mph 28.8 mph N/A   Scattered Clouds
2:25 PM 78.8 °F - 69.8 °F 74% 29.91 in 10.0 mi SSW 19.6 mph 34.5 mph N/A   Mostly Cloudy
2:54 PM 79.0 °F - 70.0 °F 74% 29.89 in 10.0 mi SW 17.3 mph 27.6 mph N/A   Mostly Cloudy
3:21 PM 78.8 °F - 66.2 °F 65% 29.88 in 10.0 mi SW 19.6 mph 29.9 mph N/A   Partly Cloudy
3:54 PM 78.1 °F - 66.9 °F 68% 29.85 in 10.0 mi SSW 18.4 mph 26.5 mph N/A   Mostly Cloudy
4:54 PM 78.1 °F - 64.0 °F 62% 29.86 in 10.0 mi SSW 12.7 mph 23.0 mph N/A   Clear
5:54 PM 75.0 °F - 57.0 °F 53% 29.85 in 10.0 mi SSW 10.4 mph 20.7 mph N/A   Clear
6:54 PM 73.0 °F - 61.0 °F 66% 29.86 in 10.0 mi SSW 11.5 mph 18.4 mph N/A   Clear
7:54 PM 71.1 °F - 61.0 °F 70% 29.85 in 10.0 mi SSW 12.7 mph - N/A   Clear
8:54 PM 70.0 °F - 62.1 °F 76% 29.86 in 10.0 mi SW 10.4 mph - N/A   Clear
9:54 PM 69.1 °F - 62.1 °F 78% 29.87 in 10.0 mi SSW 8.1 mph - N/A   Clear
10:54 PM 69.1 °F - 62.1 °F 78% 29.87 in 10.0 mi SW 9.2 mph - N/A   Clear
11:54 PM 69.1 °F - 62.1 °F 78% 29.86 in 10.0 mi SSW 9.2 mph - N/A   Clear